User: anonymous   Login
Location: Nairn
(57.5833°N, 3.8667°W)
Time: 16:04:02
(UTC+00:00)
Language:

Cosmos 1842 - Orbit

View from above orbital plane
View from above orbital plane
View from above satellite
View from above satellite

Ground track
Ground track

The orbit data is extracted from the following two-line orbital elements,

1 17911U 87038A   20292.87758005 +.00000543 +00000-0 +29538-4 0  9993
2 17911 082.5218 079.7658 0011351 009.9587 350.1867 15.12333370826091
Epoch (UTC): 18 October 2020 21:03:42
Eccentricity: 0.0011351
inclination: 82.5218°
perigee height: 521 km
apogee height: 537 km
right ascension of ascending node: 79.7658°
argument of perigee: 9.9587°
revolutions per day: 15.12333370
mean anomaly at epoch: 350.1867°
orbit number at epoch: 82609

The dashed part of the orbit path shows where the satellite is in the earth's shadow,  

DLR